TimeMDT,TemperatureF,Dew PointF,Humidity,Sea Level PressureIn,VisibilityMPH,Wind Direction,Wind SpeedMPH,Gust SpeedMPH,PrecipitationIn,Events,Conditions,WindDirDegrees,DateUTC
12:15 AM,51.8,26.6,38,30.29,10.0,NE,8.1,-,N/A,,Clear,50,2012-10-15 06:15:00
12:35 AM,51.8,26.6,38,30.29,10.0,ENE,8.1,-,N/A,,Clear,60,2012-10-15 06:35:00
12:55 AM,53.6,26.6,35,30.29,10.0,NE,5.8,-,N/A,,Clear,50,2012-10-15 06:55:00
1:15 AM,48.2,26.6,43,30.29,10.0,ENE,5.8,-,N/A,,Clear,60,2012-10-15 07:15:00
1:35 AM,44.6,24.8,46,30.28,10.0,NE,6.9,-,N/A,,Clear,40,2012-10-15 07:35:00
1:55 AM,44.6,24.8,46,30.28,10.0,NNE,5.8,-,N/A,,Clear,30,2012-10-15 07:55:00
2:15 AM,44.6,24.8,46,30.27,10.0,NNE,6.9,-,N/A,,Clear,30,2012-10-15 08:15:00
2:35 AM,46.4,24.8,43,30.26,10.0,NNE,8.1,-,N/A,,Clear,20,2012-10-15 08:35:00
2:55 AM,44.6,24.8,46,30.25,10.0,North,8.1,-,N/A,,Clear,360,2012-10-15 08:55:00
3:15 AM,41.0,24.8,53,30.26,10.0,NNW,5.8,-,N/A,,Clear,330,2012-10-15 09:15:00
3:55 AM,41.0,24.8,53,30.26,10.0,NNW,8.1,-,N/A,,Clear,340,2012-10-15 09:55:00
4:15 AM,41.0,24.8,53,30.25,10.0,NNE,8.1,-,N/A,,Clear,20,2012-10-15 10:15:00
4:35 AM,44.6,26.6,49,30.25,10.0,NNE,8.1,-,N/A,,Clear,20,2012-10-15 10:35:00
4:55 AM,44.6,26.6,49,30.25,10.0,North,9.2,-,N/A,,Clear,10,2012-10-15 10:55:00
5:15 AM,44.6,26.6,49,30.26,10.0,NNW,3.5,-,N/A,,Clear,340,2012-10-15 11:15:00
5:35 AM,46.4,26.6,46,30.26,10.0,Calm,Calm,-,N/A,,Clear,0,2012-10-15 11:35:00
6:15 AM,41.0,26.6,57,30.26,10.0,NNW,5.8,-,N/A,,Clear,330,2012-10-15 12:15:00
6:35 AM,39.2,24.8,56,30.26,10.0,NNW,4.6,-,N/A,,Clear,340,2012-10-15 12:35:00
6:55 AM,41.0,24.8,53,30.26,10.0,NNW,6.9,-,N/A,,Clear,340,2012-10-15 12:55:00
7:15 AM,39.2,26.6,61,30.27,10.0,NNW,8.1,-,N/A,,Clear,340,2012-10-15 13:15:00
7:35 AM,39.2,26.6,61,30.27,10.0,North,9.2,-,N/A,,Clear,360,2012-10-15 13:35:00
7:55 AM,44.6,26.6,49,30.27,10.0,North,6.9,-,N/A,,Clear,350,2012-10-15 13:55:00
8:15 AM,50.0,28.4,43,30.27,10.0,North,5.8,-,N/A,,Clear,350,2012-10-15 14:15:00
8:35 AM,57.2,28.4,33,30.28,10.0,North,3.5,-,N/A,,Clear,10,2012-10-15 14:35:00
8:55 AM,60.8,28.4,29,30.28,10.0,NNE,3.5,-,N/A,,Clear,30,2012-10-15 14:55:00
9:15 AM,62.6,28.4,27,30.28,10.0,ENE,5.8,-,N/A,,Clear,70,2012-10-15 15:15:00
9:35 AM,62.6,28.4,27,30.28,10.0,ESE,6.9,-,N/A,,Clear,120,2012-10-15 15:35:00
9:55 AM,64.4,28.4,26,30.28,10.0,East,8.1,-,N/A,,Clear,90,2012-10-15 15:55:00
10:15 AM,66.2,28.4,24,30.28,10.0,East,6.9,-,N/A,,Clear,100,2012-10-15 16:15:00
10:35 AM,66.2,28.4,24,30.27,10.0,SE,8.1,-,N/A,,Clear,140,2012-10-15 16:35:00
10:55 AM,68.0,28.4,23,30.27,10.0,SE,8.1,-,N/A,,Clear,130,2012-10-15 16:55:00
11:15 AM,66.2,30.2,26,30.26,10.0,ESE,8.1,-,N/A,,Clear,120,2012-10-15 17:15:00
11:35 AM,68.0,30.2,24,30.25,10.0,ESE,6.9,-,N/A,,Clear,110,2012-10-15 17:35:00
11:55 AM,69.8,30.2,23,30.25,10.0,SSE,6.9,-,N/A,,Clear,160,2012-10-15 17:55:00
12:15 PM,68.0,32.0,26,30.24,10.0,SE,9.2,-,N/A,,Clear,140,2012-10-15 18:15:00
12:35 PM,71.6,32.0,23,30.24,10.0,SSE,12.7,16.1,N/A,,Clear,150,2012-10-15 18:35:00
12:55 PM,71.6,32.0,23,30.23,10.0,South,12.7,19.6,N/A,,Clear,170,2012-10-15 18:55:00
1:15 PM,71.6,32.0,23,30.22,10.0,South,8.1,16.1,N/A,,Clear,170,2012-10-15 19:15:00
1:35 PM,71.6,32.0,23,30.21,10.0,SSE,9.2,-,N/A,,Clear,150,2012-10-15 19:35:00
1:55 PM,71.6,30.2,22,30.19,10.0,SSE,8.1,-,N/A,,Clear,160,2012-10-15 19:55:00
2:15 PM,71.6,32.0,23,30.18,10.0,South,6.9,-,N/A,,Clear,170,2012-10-15 20:15:00
2:35 PM,71.6,30.2,22,30.18,10.0,South,5.8,-,N/A,,Clear,180,2012-10-15 20:35:00
2:55 PM,71.6,30.2,22,30.17,10.0,SSE,5.8,-,N/A,,Clear,160,2012-10-15 20:55:00
3:15 PM,73.4,30.2,20,30.16,10.0,SSE,4.6,-,N/A,,Clear,150,2012-10-15 21:15:00
3:35 PM,73.4,30.2,20,30.16,10.0,SSE,5.8,-,N/A,,Clear,150,2012-10-15 21:35:00
3:55 PM,73.4,30.2,20,30.16,10.0,SE,4.6,-,N/A,,Clear,130,2012-10-15 21:55:00
4:15 PM,73.4,30.2,20,30.15,10.0,SSE,10.4,-,N/A,,Clear,160,2012-10-15 22:15:00
4:35 PM,73.4,28.4,19,30.15,10.0,South,8.1,-,N/A,,Clear,180,2012-10-15 22:35:00
4:55 PM,73.4,28.4,19,30.13,10.0,SSE,5.8,-,N/A,,Clear,160,2012-10-15 22:55:00
5:15 PM,73.4,28.4,19,30.13,10.0,SSE,3.5,-,N/A,,Clear,150,2012-10-15 23:15:00
5:35 PM,73.4,28.4,19,30.13,10.0,South,5.8,-,N/A,,Clear,180,2012-10-15 23:35:00
5:55 PM,73.4,28.4,19,30.12,10.0,SSW,3.5,-,N/A,,Clear,200,2012-10-15 23:55:00
6:15 PM,71.6,28.4,20,30.12,10.0,SSW,3.5,-,N/A,,Clear,200,2012-10-16 00:15:00
6:35 PM,69.8,28.4,21,30.12,10.0,South,5.8,-,N/A,,Clear,170,2012-10-16 00:35:00
6:55 PM,66.2,28.4,24,30.12,10.0,Calm,Calm,-,N/A,,Clear,0,2012-10-16 00:55:00
7:15 PM,66.2,28.4,24,30.13,10.0,SSW,3.5,-,N/A,,Clear,210,2012-10-16 01:15:00
7:35 PM,62.6,28.4,27,30.13,10.0,West,5.8,-,N/A,,Clear,270,2012-10-16 01:35:00
7:55 PM,59.0,26.6,29,30.13,10.0,WNW,5.8,-,N/A,,Clear,300,2012-10-16 01:55:00
8:15 PM,57.2,26.6,31,30.13,10.0,WNW,4.6,-,N/A,,Clear,290,2012-10-16 02:15:00
8:35 PM,53.6,24.8,33,30.13,10.0,North,6.9,-,N/A,,Clear,350,2012-10-16 02:35:00
8:55 PM,50.0,24.8,37,30.12,10.0,North,10.4,-,N/A,,Clear,360,2012-10-16 02:55:00
9:15 PM,51.8,24.8,35,30.13,10.0,North,9.2,-,N/A,,Clear,360,2012-10-16 03:15:00
9:35 PM,51.8,24.8,35,30.13,10.0,North,11.5,-,N/A,,Clear,10,2012-10-16 03:35:00
9:55 PM,50.0,24.8,37,30.13,10.0,North,11.5,-,N/A,,Clear,360,2012-10-16 03:55:00
10:15 PM,50.0,24.8,37,30.14,10.0,North,10.4,-,N/A,,Clear,360,2012-10-16 04:15:00
10:35 PM,50.0,24.8,37,30.14,10.0,North,10.4,-,N/A,,Clear,360,2012-10-16 04:35:00
10:55 PM,50.0,24.8,37,30.14,10.0,North,10.4,-,N/A,,Clear,360,2012-10-16 04:55:00
11:15 PM,50.0,23.0,35,30.13,10.0,North,10.4,-,N/A,,Clear,350,2012-10-16 05:15:00
11:35 PM,50.0,23.0,35,30.13,10.0,North,10.4,-,N/A,,Clear,350,2012-10-16 05:35:00
11:55 PM,48.2,23.0,37,30.13,10.0,North,9.2,-,N/A,,Clear,350,2012-10-16 05:55:00